sat.trackr.live / text

‹ back to catalog

STARLINK-1350

NORAD 45535 · 2020-025E

PAYLOAD ACTIVE UNKNOWN

§ Identity

Operator
Country
US
Launch date
2020-04-22
Launch site
AFETR
Launch vehicle
Mass (kg)
RCS (m²)

Purposes: comms

External: N2YO · Heavens-Above · Gunter

§ Orbital elements

Epoch: 2026-09-03T08:50:12.982848Z

Period
93.37 min
Inclination
53.0687°
Eccentricity
0.0001814
Mean motion
15.42226712 rev/d
Perigee alt
438.3 km
Apogee alt
440.8 km
Semi-major
6,817.7 km
B*
8.2996e-4
RAAN
275.3441°
Arg perigee
26.6512°
Mean anomaly
333.4586°
Rev number
35,351

§ Raw data

STARLINK-13501 45535U 20025E   26246.36820582  .00035958  00000+0  82996-3 0  99912 45535  53.0687 275.3441 0001814  26.6512 333.4586 15.42226712353516

JSON: /api/v1/satellites/45535 · /tle

For live sub-satellite position, see the globe view (requires WebGL).

§ Visibility from observer

Set your observer location to see the next 7 days of passes ≥ 10°. The values pass through the URL so the page stays shareable.

No JS? Fill the form by hand. The geolocation button needs JavaScript.